Location: Home
(42.5358°N, 72.7383°W)
Time: 05:55:47
(UTC-04:00)

COSMOS 2251 DEB - Pass Details

Date: 05 July 2022
Orbit: 769 x 1233 km, 74.1° (Epoch: 15 August)

Event Time Altitude Azimuth Distance (km) Brightness Sun altitude
Exits shadow 02:11:41 37° 236° (SW) 1,461 ? -22.4°
Maximum altitude 02:14:01 57° 295° (WNW) 1,165 ? -22.2°
Drops below altitude 10° 02:20:46 10° 14° (NNE) 2,950 ? -21.8°
Sets 02:23:38 0° 18° (NNE) 3,976 ? -21.6°
